contact:dominique.lefevre@mio.osupytheas.fr, maurice.libes@osupytheas.fr, didier.mallarino@osupytheas.fr
Project:EMSO http://www.emso-fr.org/EMSO-France
Depth: 2436.0 m
Title:EMSO Ligure Ouest : Data MII capteur MICROCAT
DateTime_Computer,Latitude,Longitude,Temperature,Conductivity,Pressure,DateTime_Instrument
DateTime_Computer,Latitude,Longitude,degC,S m-1,dbar,DateTime_Instrument
2021-11-23T00:00:00Z,42.805,6.029,13.3027,4.60087,2470.227,2021-11-23T02:01:27Z
2021-11-23T00:03:03Z,42.805,6.029,13.3016,4.60081,2470.24,2021-11-23T02:04:30Z
2021-11-23T00:06:06Z,42.805,6.029,13.3067,4.60062,2470.24,2021-11-23T02:07:33Z
2021-11-23T00:09:09Z,42.805,6.029,13.3063,4.60097,2470.264,2021-11-23T02:10:36Z
2021-11-23T00:12:13Z,42.805,6.029,13.3047,4.60105,2470.227,2021-11-23T02:13:39Z
2021-11-23T00:15:16Z,42.805,6.029,13.3074,4.60086,2470.227,2021-11-23T02:16:42Z
2021-11-23T00:18:19Z,42.805,6.029,13.3077,4.60062,2470.264,2021-11-23T02:19:45Z
2021-11-23T00:21:22Z,42.805,6.029,13.3017,4.60079,2470.24,2021-11-23T02:22:48Z
2021-11-23T00:24:25Z,42.805,6.029,13.3017,4.60046,2470.24,2021-11-23T02:25:52Z
2021-11-23T00:27:28Z,42.805,6.029,13.3021,4.60098,2470.24,2021-11-23T02:28:55Z
2021-11-23T00:30:31Z,42.805,6.029,13.3042,4.60111,2470.18,2021-11-23T02:31:58Z
2021-11-23T00:33:34Z,42.805,6.029,13.3048,4.60150,2470.18,2021-11-23T02:35:01Z
2021-11-23T00:36:37Z,42.805,6.029,13.3069,4.60068,2470.24,2021-11-23T02:38:04Z
2021-11-23T00:39:41Z,42.805,6.029,13.3056,4.60078,2470.227,2021-11-23T02:41:07Z
2021-11-23T00:42:44Z,42.805,6.029,13.3066,4.60074,2470.217,2021-11-23T02:44:10Z
2021-11-23T00:45:47Z,42.805,6.029,13.3036,4.60073,2470.24,2021-11-23T02:47:13Z
2021-11-23T00:48:50Z,42.805,6.029,13.3042,4.60060,2470.203,2021-11-23T02:50:17Z
2021-11-23T00:51:53Z,42.805,6.029,13.3050,4.60059,2470.24,2021-11-23T02:53:20Z
2021-11-23T00:54:56Z,42.805,6.029,13.3044,4.60039,2470.217,2021-11-23T02:56:23Z
2021-11-23T00:57:59Z,42.805,6.029,13.3029,4.60055,2470.203,2021-11-23T02:59:26Z
2021-11-23T01:01:02Z,42.805,6.029,13.3019,4.60033,2470.227,2021-11-23T03:02:29Z
2021-11-23T01:04:06Z,42.805,6.029,13.3015,4.60045,2470.203,2021-11-23T03:05:32Z
2021-11-23T01:07:09Z,42.805,6.029,13.3013,4.60037,2470.217,2021-11-23T03:08:35Z
2021-11-23T01:10:12Z,42.805,6.029,13.3037,4.60049,2470.227,2021-11-23T03:11:38Z
2021-11-23T01:13:15Z,42.805,6.029,13.3029,4.60044,2470.18,2021-11-23T03:14:42Z
2021-11-23T01:16:18Z,42.805,6.029,13.3039,4.60038,2470.203,2021-11-23T03:17:45Z
2021-11-23T01:19:21Z,42.805,6.029,13.3034,4.60044,2470.24,2021-11-23T03:20:48Z
2021-11-23T01:22:24Z,42.805,6.029,13.3027,4.60057,2470.203,2021-11-23T03:23:51Z
2021-11-23T01:25:27Z,42.805,6.029,13.3020,4.60046,2470.203,2021-11-23T03:26:54Z
2021-11-23T01:28:31Z,42.805,6.029,13.3078,4.60044,2470.203,2021-11-23T03:29:57Z
2021-11-23T01:31:34Z,42.805,6.029,13.3048,4.60036,2470.24,2021-11-23T03:33:00Z
2021-11-23T01:34:37Z,42.805,6.029,13.3014,4.60032,2470.203,2021-11-23T03:36:03Z
2021-11-23T01:37:40Z,42.805,6.029,13.3041,4.60033,2470.194,2021-11-23T03:39:07Z
2021-11-23T01:40:43Z,42.805,6.029,13.3029,4.60045,2470.24,2021-11-23T03:42:10Z
2021-11-23T01:43:46Z,42.805,6.029,13.3035,4.60048,2470.217,2021-11-23T03:45:13Z
2021-11-23T01:46:49Z,42.805,6.029,13.3019,4.60056,2470.217,2021-11-23T03:48:16Z
2021-11-23T01:49:52Z,42.805,6.029,13.3043,4.60052,2470.171,2021-11-23T03:51:19Z
2021-11-23T01:52:56Z,42.805,6.029,13.3021,4.60037,2470.194,2021-11-23T03:54:22Z
2021-11-23T01:55:59Z,42.805,6.029,13.3004,4.60066,2470.203,2021-11-23T03:57:25Z
2021-11-23T01:59:02Z,42.805,6.029,13.3031,4.60056,2470.203,2021-11-23T04:00:28Z
2021-11-23T02:02:05Z,42.805,6.029,13.3018,4.60056,2470.194,2021-11-23T04:03:32Z
2021-11-23T02:05:08Z,42.805,6.029,13.3037,4.60033,2470.18,2021-11-23T04:06:35Z
2021-11-23T02:08:11Z,42.805,6.029,13.3021,4.60047,2470.18,2021-11-23T04:09:38Z
2021-11-23T02:11:14Z,42.805,6.029,13.3036,4.60072,2470.203,2021-11-23T04:12:41Z
2021-11-23T02:14:17Z,42.805,6.029,13.3022,4.60033,2470.194,2021-11-23T04:15:44Z
2021-11-23T02:17:21Z,42.805,6.029,13.3021,4.60039,2470.194,2021-11-23T04:18:47Z
2021-11-23T02:20:24Z,42.805,6.029,13.3022,4.60043,2470.217,2021-11-23T04:21:50Z
2021-11-23T02:23:27Z,42.805,6.029,13.3028,4.60049,2470.18,2021-11-23T04:24:53Z
2021-11-23T02:26:30Z,42.805,6.029,13.3024,4.60036,2470.18,2021-11-23T04:27:57Z
2021-11-23T02:29:33Z,42.805,6.029,13.3029,4.60050,2470.18,2021-11-23T04:31:00Z
2021-11-23T02:32:36Z,42.805,6.029,13.3026,4.60045,2470.217,2021-11-23T04:34:03Z
2021-11-23T02:35:39Z,42.805,6.029,13.3020,4.60052,2470.156,2021-11-23T04:37:06Z
2021-11-23T02:38:42Z,42.805,6.029,13.3020,4.60041,2470.203,2021-11-23T04:40:09Z
2021-11-23T02:41:46Z,42.805,6.029,13.3026,4.60044,2470.194,2021-11-23T04:43:12Z
2021-11-23T02:44:49Z,42.805,6.029,13.3037,4.60052,2470.227,2021-11-23T04:46:15Z
2021-11-23T02:47:52Z,42.805,6.029,13.3029,4.60050,2470.217,2021-11-23T04:49:18Z
2021-11-23T02:50:55Z,42.805,6.029,13.3029,4.60052,2470.18,2021-11-23T04:52:22Z
2021-11-23T02:53:58Z,42.805,6.029,13.3032,4.60046,2470.203,2021-11-23T04:55:25Z
2021-11-23T02:57:01Z,42.805,6.029,13.3029,4.60038,2470.203,2021-11-23T04:58:28Z
2021-11-23T03:00:04Z,42.805,6.029,13.3033,4.60054,2470.18,2021-11-23T05:01:31Z
2021-11-23T03:03:07Z,42.805,6.029,13.3028,4.60038,2470.217,2021-11-23T05:04:34Z
2021-11-23T03:06:11Z,42.805,6.029,13.3022,4.60039,2470.227,2021-11-23T05:07:37Z
2021-11-23T03:09:14Z,42.805,6.029,13.3027,4.60064,2470.194,2021-11-23T05:10:40Z
2021-11-23T03:12:17Z,42.805,6.029,13.3039,4.60042,2470.203,2021-11-23T05:13:43Z
2021-11-23T03:15:20Z,42.805,6.029,13.3021,4.60046,2470.217,2021-11-23T05:16:47Z
2021-11-23T03:18:23Z,42.805,6.029,13.3040,4.60047,2470.203,2021-11-23T05:19:50Z
2021-11-23T03:21:26Z,42.805,6.029,13.3029,4.60042,2470.194,2021-11-23T05:22:53Z
2021-11-23T03:24:29Z,42.805,6.029,13.3029,4.60039,2470.203,2021-11-23T05:25:56Z
2021-11-23T03:27:32Z,42.805,6.029,13.3017,4.60052,2470.203,2021-11-23T05:28:59Z
2021-11-23T03:30:36Z,42.805,6.029,13.3022,4.60046,2470.203,2021-11-23T05:32:02Z
2021-11-23T03:33:39Z,42.805,6.029,13.3032,4.60044,2470.147,2021-11-23T05:35:05Z
2021-11-23T03:36:42Z,42.805,6.029,13.3031,4.60036,2470.217,2021-11-23T05:38:08Z
2021-11-23T03:39:45Z,42.805,6.029,13.3034,4.60040,2470.18,2021-11-23T05:41:12Z
2021-11-23T03:42:48Z,42.805,6.029,13.3034,4.60047,2470.18,2021-11-23T05:44:15Z
2021-11-23T03:45:51Z,42.805,6.029,13.3046,4.60050,2470.217,2021-11-23T05:47:18Z
2021-11-23T03:48:54Z,42.805,6.029,13.3036,4.60051,2470.24,2021-11-23T05:50:21Z
2021-11-23T03:51:57Z,42.805,6.029,13.3037,4.60036,2470.18,2021-11-23T05:53:24Z
2021-11-23T03:55:01Z,42.805,6.029,13.3026,4.60046,2470.203,2021-11-23T05:56:27Z
2021-11-23T03:58:04Z,42.805,6.029,13.3032,4.60046,2470.217,2021-11-23T05:59:30Z
2021-11-23T04:01:07Z,42.805,6.029,13.3039,4.60034,2470.217,2021-11-23T06:02:33Z
2021-11-23T04:04:10Z,42.805,6.029,13.3054,4.60053,2470.227,2021-11-23T06:05:37Z
2021-11-23T04:07:13Z,42.805,6.029,13.3031,4.60040,2470.203,2021-11-23T06:08:40Z
2021-11-23T04:10:16Z,42.805,6.029,13.3041,4.60049,2470.18,2021-11-23T06:11:43Z
2021-11-23T04:13:19Z,42.805,6.029,13.3037,4.60056,2470.203,2021-11-23T06:14:46Z
2021-11-23T04:16:22Z,42.805,6.029,13.3041,4.60043,2470.203,2021-11-23T06:17:49Z
2021-11-23T04:19:26Z,42.805,6.029,13.3032,4.60039,2470.203,2021-11-23T06:20:52Z
2021-11-23T04:22:29Z,42.805,6.029,13.3029,4.60045,2470.24,2021-11-23T06:23:55Z
2021-11-23T04:25:32Z,42.805,6.029,13.3021,4.60033,2470.203,2021-11-23T06:26:58Z
2021-11-23T04:28:35Z,42.805,6.029,13.3035,4.60038,2470.203,2021-11-23T06:30:02Z
2021-11-23T04:31:38Z,42.805,6.029,13.3036,4.60046,2470.227,2021-11-23T06:33:05Z
2021-11-23T04:34:41Z,42.805,6.029,13.3039,4.60040,2470.227,2021-11-23T06:36:08Z
2021-11-23T04:37:44Z,42.805,6.029,13.3051,4.60063,2470.203,2021-11-23T06:39:11Z
2021-11-23T04:40:47Z,42.805,6.029,13.3042,4.60080,2470.217,2021-11-23T06:42:14Z
2021-11-23T04:43:51Z,42.805,6.029,13.3035,4.60051,2470.264,2021-11-23T06:45:17Z
2021-11-23T04:46:54Z,42.805,6.029,13.3044,4.60059,2470.227,2021-11-23T06:48:20Z
2021-11-23T04:49:57Z,42.805,6.029,13.3048,4.60046,2470.203,2021-11-23T06:51:23Z
2021-11-23T04:53:00Z,42.805,6.029,13.3050,4.60037,2470.24,2021-11-23T06:54:27Z
2021-11-23T04:56:03Z,42.805,6.029,13.3046,4.60060,2470.24,2021-11-23T06:57:30Z
2021-11-23T04:59:06Z,42.805,6.029,13.3063,4.60035,2470.217,2021-11-23T07:00:33Z
2021-11-23T05:02:09Z,42.805,6.029,13.3019,4.60054,2470.227,2021-11-23T07:03:36Z
2021-11-23T05:05:12Z,42.805,6.029,13.3037,4.60047,2470.264,2021-11-23T07:06:39Z
2021-11-23T05:08:16Z,42.805,6.029,13.3031,4.60064,2470.278,2021-11-23T07:09:42Z
2021-11-23T05:11:19Z,42.805,6.029,13.3032,4.60069,2470.264,2021-11-23T07:12:45Z
2021-11-23T05:14:22Z,42.805,6.029,13.3036,4.60049,2470.24,2021-11-23T07:15:48Z
2021-11-23T05:17:25Z,42.805,6.029,13.3055,4.60054,2470.227,2021-11-23T07:18:52Z
2021-11-23T05:20:28Z,42.805,6.029,13.3021,4.60057,2470.227,2021-11-23T07:21:55Z
2021-11-23T05:23:31Z,42.805,6.029,13.3074,4.60071,2470.264,2021-11-23T07:24:58Z
2021-11-23T05:26:34Z,42.805,6.029,13.3029,4.60059,2470.287,2021-11-23T07:28:01Z
2021-11-23T05:29:37Z,42.805,6.029,13.3031,4.60044,2470.25,2021-11-23T07:31:04Z
2021-11-23T05:32:41Z,42.805,6.029,13.3031,4.60063,2470.25,2021-11-23T07:34:07Z
2021-11-23T05:35:44Z,42.805,6.029,13.3040,4.60051,2470.264,2021-11-23T07:37:10Z
2021-11-23T05:38:47Z,42.805,6.029,13.3053,4.60064,2470.227,2021-11-23T07:40:13Z
2021-11-23T05:41:50Z,42.805,6.029,13.3048,4.60039,2470.24,2021-11-23T07:43:17Z
2021-11-23T05:44:53Z,42.805,6.029,13.3051,4.60060,2470.264,2021-11-23T07:46:20Z
2021-11-23T05:47:56Z,42.805,6.029,13.3033,4.60102,2470.264,2021-11-23T07:49:23Z
2021-11-23T05:50:59Z,42.805,6.029,13.3046,4.60054,2470.25,2021-11-23T07:52:26Z
2021-11-23T05:54:02Z,42.805,6.029,13.3046,4.60059,2470.297,2021-11-23T07:55:29Z
2021-11-23T05:57:05Z,42.805,6.029,13.3025,4.60069,2470.227,2021-11-23T07:58:32Z
2021-11-23T06:00:09Z,42.805,6.029,13.3072,4.60043,2470.287,2021-11-23T08:01:35Z
2021-11-23T06:03:12Z,42.805,6.029,13.3067,4.60061,2470.25,2021-11-23T08:04:38Z
2021-11-23T06:06:15Z,42.805,6.029,13.3061,4.60060,2470.287,2021-11-23T08:07:41Z
2021-11-23T06:09:18Z,42.805,6.029,13.3033,4.60055,2470.287,2021-11-23T08:10:45Z
2021-11-23T06:12:21Z,42.805,6.029,13.3046,4.60041,2470.334,2021-11-23T08:13:48Z
2021-11-23T06:15:24Z,42.805,6.029,13.3038,4.60058,2470.287,2021-11-23T08:16:51Z
2021-11-23T06:18:27Z,42.805,6.029,13.3051,4.60041,2470.287,2021-11-23T08:19:54Z
2021-11-23T06:21:30Z,42.805,6.029,13.3034,4.60036,2470.297,2021-11-23T08:22:57Z
2021-11-23T06:24:34Z,42.805,6.029,13.3065,4.60058,2470.264,2021-11-23T08:26:00Z
2021-11-23T06:27:37Z,42.805,6.029,13.3067,4.60040,2470.31,2021-11-23T08:29:03Z
2021-11-23T06:30:40Z,42.805,6.029,13.3041,4.60052,2470.334,2021-11-23T08:32:06Z
2021-11-23T06:33:43Z,42.805,6.029,13.3062,4.60073,2470.297,2021-11-23T08:35:10Z
2021-11-23T06:36:46Z,42.805,6.029,13.3067,4.60066,2470.297,2021-11-23T08:38:13Z
2021-11-23T06:39:49Z,42.805,6.029,13.3035,4.60046,2470.32,2021-11-23T08:41:16Z
2021-11-23T06:42:52Z,42.805,6.029,13.3046,4.60066,2470.32,2021-11-23T08:44:19Z
2021-11-23T06:45:55Z,42.805,6.029,13.3065,4.60044,2470.31,2021-11-23T08:47:22Z
2021-11-23T06:48:59Z,42.805,6.029,13.3029,4.60074,2470.32,2021-11-23T08:50:25Z
2021-11-23T06:52:02Z,42.805,6.029,13.3038,4.60062,2470.31,2021-11-23T08:53:28Z
2021-11-23T06:55:05Z,42.805,6.029,13.3041,4.60046,2470.334,2021-11-23T08:56:31Z
2021-11-23T06:58:08Z,42.805,6.029,13.3031,4.60045,2470.31,2021-11-23T08:59:35Z
2021-11-23T07:01:11Z,42.805,6.029,13.3034,4.60079,2470.334,2021-11-23T09:02:38Z
2021-11-23T07:04:14Z,42.805,6.029,13.3067,4.60060,2470.357,2021-11-23T09:05:41Z
2021-11-23T07:07:17Z,42.805,6.029,13.3072,4.60057,2470.334,2021-11-23T09:08:44Z
2021-11-23T07:10:20Z,42.805,6.029,13.3070,4.60049,2470.343,2021-11-23T09:11:47Z
2021-11-23T07:13:24Z,42.805,6.029,13.3057,4.60043,2470.343,2021-11-23T09:14:50Z
2021-11-23T07:16:27Z,42.805,6.029,13.3064,4.60040,2470.38,2021-11-23T09:17:53Z
2021-11-23T07:19:30Z,42.805,6.029,13.3058,4.60069,2470.334,2021-11-23T09:20:56Z
2021-11-23T07:22:33Z,42.805,6.029,13.3069,4.60043,2470.343,2021-11-23T09:24:00Z
2021-11-23T07:25:36Z,42.805,6.029,13.3067,4.60076,2470.357,2021-11-23T09:27:03Z
2021-11-23T07:28:39Z,42.805,6.029,13.3058,4.60067,2470.343,2021-11-23T09:30:06Z
2021-11-23T07:31:42Z,42.805,6.029,13.3037,4.60061,2470.366,2021-11-23T09:33:09Z
2021-11-23T07:34:45Z,42.805,6.029,13.3031,4.60085,2470.366,2021-11-23T09:36:12Z
2021-11-23T07:37:49Z,42.805,6.029,13.3043,4.60064,2470.38,2021-11-23T09:39:15Z
2021-11-23T07:40:52Z,42.805,6.029,13.3024,4.60054,2470.38,2021-11-23T09:42:18Z
2021-11-23T07:43:55Z,42.805,6.029,13.3061,4.60059,2470.38,2021-11-23T09:45:21Z
2021-11-23T07:46:58Z,42.805,6.029,13.3035,4.60051,2470.38,2021-11-23T09:48:25Z
2021-11-23T07:50:01Z,42.805,6.029,13.3051,4.60033,2470.38,2021-11-23T09:51:28Z
2021-11-23T07:53:04Z,42.805,6.029,13.3045,4.60062,2470.39,2021-11-23T09:54:31Z
2021-11-23T07:56:07Z,42.805,6.029,13.3069,4.60055,2470.39,2021-11-23T09:57:34Z
2021-11-23T07:59:10Z,42.805,6.029,13.3069,4.60050,2470.38,2021-11-23T10:00:37Z
2021-11-23T08:02:14Z,42.805,6.029,13.3068,4.60074,2470.404,2021-11-23T10:03:40Z
2021-11-23T08:05:17Z,42.805,6.029,13.3065,4.60056,2470.404,2021-11-23T10:06:43Z
2021-11-23T08:08:20Z,42.805,6.029,13.3069,4.60071,2470.427,2021-11-23T10:09:46Z
2021-11-23T08:11:23Z,42.805,6.029,13.3062,4.60068,2470.413,2021-11-23T10:12:50Z
2021-11-23T08:14:26Z,42.805,6.029,13.3076,4.60048,2470.39,2021-11-23T10:15:53Z
2021-11-23T08:17:29Z,42.805,6.029,13.3086,4.60057,2470.413,2021-11-23T10:18:56Z
2021-11-23T08:20:32Z,42.805,6.029,13.3064,4.60076,2470.427,2021-11-23T10:21:59Z
2021-11-23T08:23:35Z,42.805,6.029,13.3061,4.60052,2470.427,2021-11-23T10:25:02Z
2021-11-23T08:26:39Z,42.805,6.029,13.3054,4.60052,2470.413,2021-11-23T10:28:05Z
2021-11-23T08:29:42Z,42.805,6.029,13.3058,4.60071,2470.39,2021-11-23T10:31:08Z
2021-11-23T08:32:45Z,42.805,6.029,13.3064,4.60043,2470.404,2021-11-23T10:34:11Z
2021-11-23T08:35:48Z,42.805,6.029,13.3034,4.60039,2470.404,2021-11-23T10:37:15Z
2021-11-23T08:38:51Z,42.805,6.029,13.3066,4.60052,2470.413,2021-11-23T10:40:18Z
2021-11-23T08:41:54Z,42.805,6.029,13.3048,4.60069,2470.45,2021-11-23T10:43:21Z
2021-11-23T08:44:57Z,42.805,6.029,13.3040,4.60041,2470.39,2021-11-23T10:46:24Z
2021-11-23T08:48:00Z,42.805,6.029,13.3040,4.60061,2470.39,2021-11-23T10:49:27Z
2021-11-23T08:51:04Z,42.805,6.029,13.3034,4.60069,2470.404,2021-11-23T10:52:30Z
2021-11-23T08:54:07Z,42.805,6.029,13.3059,4.60087,2470.413,2021-11-23T10:55:33Z
2021-11-23T08:57:10Z,42.805,6.029,13.3051,4.60068,2470.45,2021-11-23T10:58:36Z
2021-11-23T09:00:13Z,42.805,6.029,13.3051,4.60089,2470.45,2021-11-23T11:01:40Z
2021-11-23T09:03:16Z,42.805,6.029,13.3052,4.60069,2470.427,2021-11-23T11:04:43Z
2021-11-23T09:06:19Z,42.805,6.029,13.3050,4.60093,2470.45,2021-11-23T11:07:46Z
2021-11-23T09:09:22Z,42.805,6.029,13.3032,4.60064,2470.427,2021-11-23T11:10:49Z
2021-11-23T09:12:25Z,42.805,6.029,13.3035,4.60046,2470.427,2021-11-23T11:13:52Z
2021-11-23T09:15:29Z,42.805,6.029,13.3079,4.60048,2470.427,2021-11-23T11:16:55Z
2021-11-23T09:18:32Z,42.805,6.029,13.3050,4.60073,2470.413,2021-11-23T11:19:58Z
2021-11-23T09:21:35Z,42.805,6.029,13.3061,4.60071,2470.427,2021-11-23T11:23:01Z
2021-11-23T09:24:38Z,42.805,6.029,13.3058,4.60076,2470.413,2021-11-23T11:26:05Z
2021-11-23T09:27:41Z,42.805,6.029,13.3034,4.60064,2470.45,2021-11-23T11:29:08Z
2021-11-23T09:30:44Z,42.805,6.029,13.3030,4.60067,2470.38,2021-11-23T11:32:11Z
2021-11-23T09:33:47Z,42.805,6.029,13.3028,4.60064,2470.39,2021-11-23T11:35:14Z
2021-11-23T09:36:51Z,42.805,6.029,13.3024,4.60042,2470.404,2021-11-23T11:38:17Z
2021-11-23T09:39:54Z,42.805,6.029,13.3026,4.60041,2470.427,2021-11-23T11:41:20Z
2021-11-23T09:42:57Z,42.805,6.029,13.3039,4.60047,2470.427,2021-11-23T11:44:23Z
2021-11-23T09:46:00Z,42.805,6.029,13.3031,4.60065,2470.413,2021-11-23T11:47:27Z
2021-11-23T09:49:03Z,42.805,6.029,13.3037,4.60077,2470.437,2021-11-23T11:50:30Z
2021-11-23T09:52:06Z,42.805,6.029,13.3051,4.60062,2470.404,2021-11-23T11:53:33Z
2021-11-23T09:55:09Z,42.805,6.029,13.3053,4.60063,2470.427,2021-11-23T11:56:36Z
2021-11-23T09:58:12Z,42.805,6.029,13.3050,4.60090,2470.45,2021-11-23T11:59:39Z
2021-11-23T10:01:16Z,42.805,6.029,13.3076,4.60082,2470.437,2021-11-23T12:02:42Z
2021-11-23T10:04:19Z,42.805,6.029,13.3056,4.60086,2470.427,2021-11-23T12:05:45Z
2021-11-23T10:07:22Z,42.805,6.029,13.3084,4.60068,2470.427,2021-11-23T12:08:48Z
2021-11-23T10:10:25Z,42.805,6.029,13.3066,4.60052,2470.404,2021-11-23T12:11:52Z
2021-11-23T10:13:28Z,42.805,6.029,13.3085,4.60074,2470.437,2021-11-23T12:14:55Z
2021-11-23T10:16:31Z,42.805,6.029,13.3048,4.60097,2470.413,2021-11-23T12:17:58Z
2021-11-23T10:19:34Z,42.805,6.029,13.3061,4.60094,2470.437,2021-11-23T12:21:01Z
2021-11-23T10:22:37Z,42.805,6.029,13.3073,4.60107,2470.427,2021-11-23T12:24:04Z
2021-11-23T10:25:41Z,42.805,6.029,13.3080,4.60079,2470.404,2021-11-23T12:27:07Z
2021-11-23T10:28:44Z,42.805,6.029,13.3078,4.60074,2470.404,2021-11-23T12:30:10Z
2021-11-23T10:31:47Z,42.805,6.029,13.3075,4.60092,2470.404,2021-11-23T12:33:13Z
2021-11-23T10:34:50Z,42.805,6.029,13.3061,4.60104,2470.45,2021-11-23T12:36:17Z
2021-11-23T10:37:53Z,42.805,6.029,13.3062,4.60082,2470.413,2021-11-23T12:39:20Z
2021-11-23T10:40:56Z,42.805,6.029,13.3069,4.60084,2470.413,2021-11-23T12:42:23Z
2021-11-23T10:43:59Z,42.805,6.029,13.3070,4.60074,2470.413,2021-11-23T12:45:26Z
2021-11-23T10:47:02Z,42.805,6.029,13.3061,4.60080,2470.437,2021-11-23T12:48:29Z
2021-11-23T10:50:06Z,42.805,6.029,13.3070,4.60093,2470.427,2021-11-23T12:51:32Z
2021-11-23T10:53:09Z,42.805,6.029,13.3080,4.60092,2470.427,2021-11-23T12:54:35Z
2021-11-23T10:56:12Z,42.805,6.029,13.3081,4.60083,2470.404,2021-11-23T12:57:38Z
2021-11-23T10:59:15Z,42.805,6.029,13.3085,4.60094,2470.427,2021-11-23T13:00:42Z
2021-11-23T11:02:18Z,42.805,6.029,13.3090,4.60071,2470.38,2021-11-23T13:03:45Z
2021-11-23T11:05:21Z,42.805,6.029,13.3086,4.60079,2470.427,2021-11-23T13:06:48Z
2021-11-23T11:08:24Z,42.805,6.029,13.3075,4.60059,2470.427,2021-11-23T13:09:51Z
2021-11-23T11:11:27Z,42.805,6.029,13.3047,4.60113,2470.427,2021-11-23T13:12:54Z
2021-11-23T11:14:31Z,42.805,6.029,13.3054,4.60114,2470.427,2021-11-23T13:15:57Z
2021-11-23T11:17:34Z,42.805,6.029,13.3078,4.60068,2470.427,2021-11-23T13:19:00Z
2021-11-23T11:20:37Z,42.805,6.029,13.3028,4.60080,2470.343,2021-11-23T13:22:04Z
2021-11-23T11:23:40Z,42.805,6.029,13.3048,4.60092,2470.38,2021-11-23T13:25:07Z
2021-11-23T11:26:43Z,42.805,6.029,13.3050,4.60079,2470.366,2021-11-23T13:28:10Z
2021-11-23T11:29:46Z,42.805,6.029,13.3074,4.60079,2470.366,2021-11-23T13:31:13Z
2021-11-23T11:32:49Z,42.805,6.029,13.3082,4.60075,2470.38,2021-11-23T13:34:16Z
2021-11-23T11:35:53Z,42.805,6.029,13.3074,4.60119,2470.366,2021-11-23T13:37:19Z
2021-11-23T11:38:56Z,42.805,6.029,13.3053,4.60097,2470.38,2021-11-23T13:40:22Z
2021-11-23T11:41:59Z,42.805,6.029,13.3060,4.60052,2470.413,2021-11-23T13:43:25Z
2021-11-23T11:45:02Z,42.805,6.029,13.3069,4.60067,2470.38,2021-11-23T13:46:29Z
2021-11-23T11:48:05Z,42.805,6.029,13.3085,4.60095,2470.38,2021-11-23T13:49:32Z
2021-11-23T11:51:08Z,42.805,6.029,13.3092,4.60062,2470.38,2021-11-23T13:52:35Z
2021-11-23T11:54:11Z,42.805,6.029,13.3067,4.60058,2470.343,2021-11-23T13:55:38Z
2021-11-23T11:57:14Z,42.805,6.029,13.3069,4.60069,2470.404,2021-11-23T13:58:41Z
2021-11-23T12:00:18Z,42.805,6.029,13.3080,4.60088,2470.357,2021-11-23T14:01:44Z
2021-11-23T12:03:21Z,42.805,6.029,13.3058,4.60112,2470.343,2021-11-23T14:04:47Z
2021-11-23T12:06:24Z,42.805,6.029,13.3018,4.60085,2470.38,2021-11-23T14:07:50Z
2021-11-23T12:09:27Z,42.805,6.029,13.3060,4.60081,2470.366,2021-11-23T14:10:54Z
2021-11-23T12:12:30Z,42.805,6.029,13.3078,4.60064,2470.39,2021-11-23T14:13:57Z
2021-11-23T12:15:33Z,42.805,6.029,13.3080,4.60054,2470.38,2021-11-23T14:17:00Z
2021-11-23T12:18:36Z,42.805,6.029,13.3066,4.60079,2470.357,2021-11-23T14:20:03Z
2021-11-23T12:21:39Z,42.805,6.029,13.3041,4.60104,2470.343,2021-11-23T14:23:06Z
2021-11-23T12:24:43Z,42.805,6.029,13.3061,4.60093,2470.343,2021-11-23T14:26:09Z
2021-11-23T12:27:46Z,42.805,6.029,13.3028,4.60100,2470.366,2021-11-23T14:29:12Z
2021-11-23T12:30:49Z,42.805,6.029,13.3054,4.60076,2470.343,2021-11-23T14:32:15Z
2021-11-23T12:33:52Z,42.805,6.029,13.3079,4.60092,2470.38,2021-11-23T14:35:19Z
2021-11-23T12:36:55Z,42.805,6.029,13.3064,4.60095,2470.366,2021-11-23T14:38:22Z
2021-11-23T12:39:58Z,42.805,6.029,13.3069,4.60097,2470.357,2021-11-23T14:41:25Z
2021-11-23T12:43:01Z,42.805,6.029,13.3048,4.60051,2470.357,2021-11-23T14:44:28Z
2021-11-23T12:46:04Z,42.805,6.029,13.3063,4.60094,2470.38,2021-11-23T14:47:31Z
2021-11-23T12:49:08Z,42.805,6.029,13.3085,4.60099,2470.357,2021-11-23T14:50:34Z
2021-11-23T12:52:11Z,42.805,6.029,13.3066,4.60077,2470.343,2021-11-23T14:53:37Z
2021-11-23T12:55:14Z,42.805,6.029,13.3015,4.60074,2470.334,2021-11-23T14:56:41Z
2021-11-23T12:58:17Z,42.805,6.029,13.3024,4.60068,2470.357,2021-11-23T14:59:44Z
2021-11-23T13:01:20Z,42.805,6.029,13.3042,4.60060,2470.343,2021-11-23T15:02:47Z
2021-11-23T13:04:23Z,42.805,6.029,13.3057,4.60053,2470.357,2021-11-23T15:05:50Z
2021-11-23T13:07:26Z,42.805,6.029,13.3070,4.60057,2470.334,2021-11-23T15:08:53Z
2021-11-23T13:10:29Z,42.805,6.029,13.3069,4.60087,2470.334,2021-11-23T15:11:56Z
2021-11-23T13:13:33Z,42.805,6.029,13.3017,4.60104,2470.31,2021-11-23T15:14:59Z
2021-11-23T13:16:36Z,42.805,6.029,13.3026,4.60078,2470.31,2021-11-23T15:18:02Z
2021-11-23T13:19:39Z,42.805,6.029,13.3026,4.60117,2470.357,2021-11-23T15:21:06Z
2021-11-23T13:22:42Z,42.805,6.029,13.3043,4.60087,2470.32,2021-11-23T15:24:09Z
2021-11-23T13:25:45Z,42.805,6.029,13.3052,4.60077,2470.357,2021-11-23T15:27:12Z
2021-11-23T13:28:48Z,42.805,6.029,13.3054,4.60085,2470.334,2021-11-23T15:30:15Z
2021-11-23T13:31:51Z,42.805,6.029,13.3028,4.60076,2470.31,2021-11-23T15:33:18Z
2021-11-23T13:34:55Z,42.805,6.029,13.3031,4.60125,2470.334,2021-11-23T15:36:21Z
2021-11-23T13:37:58Z,42.805,6.029,13.3063,4.60067,2470.334,2021-11-23T15:39:24Z
2021-11-23T13:41:01Z,42.805,6.029,13.3067,4.60069,2470.32,2021-11-23T15:42:27Z
2021-11-23T13:44:04Z,42.805,6.029,13.3040,4.60068,2470.297,2021-11-23T15:45:31Z
2021-11-23T13:47:07Z,42.805,6.029,13.3051,4.60067,2470.334,2021-11-23T15:48:34Z
2021-11-23T13:50:10Z,42.805,6.029,13.3053,4.60087,2470.32,2021-11-23T15:51:37Z
2021-11-23T13:53:13Z,42.805,6.029,13.3065,4.60061,2470.31,2021-11-23T15:54:40Z
2021-11-23T13:56:16Z,42.805,6.029,13.3075,4.60041,2470.31,2021-11-23T15:57:43Z
2021-11-23T13:59:20Z,42.805,6.029,13.3069,4.60067,2470.343,2021-11-23T16:00:46Z
2021-11-23T14:02:23Z,42.805,6.029,13.3067,4.60095,2470.357,2021-11-23T16:03:49Z
2021-11-23T14:05:26Z,42.805,6.029,13.3063,4.60100,2470.334,2021-11-23T16:06:52Z
2021-11-23T14:08:29Z,42.805,6.029,13.3071,4.60084,2470.334,2021-11-23T16:09:56Z
2021-11-23T14:11:32Z,42.805,6.029,13.3075,4.60064,2470.334,2021-11-23T16:12:59Z
2021-11-23T14:14:35Z,42.805,6.029,13.3059,4.60086,2470.343,2021-11-23T16:16:02Z
2021-11-23T14:17:38Z,42.805,6.029,13.3058,4.60073,2470.32,2021-11-23T16:19:05Z
2021-11-23T14:20:41Z,42.805,6.029,13.3079,4.60068,2470.357,2021-11-23T16:22:08Z
2021-11-23T14:23:45Z,42.805,6.029,13.3077,4.60087,2470.32,2021-11-23T16:25:11Z
2021-11-23T14:26:48Z,42.805,6.029,13.3072,4.60125,2470.31,2021-11-23T16:28:14Z
2021-11-23T14:29:51Z,42.805,6.029,13.3051,4.60092,2470.32,2021-11-23T16:31:18Z
2021-11-23T14:32:54Z,42.805,6.029,13.3055,4.60109,2470.357,2021-11-23T16:34:21Z
2021-11-23T14:35:57Z,42.805,6.029,13.3074,4.60097,2470.287,2021-11-23T16:37:24Z
2021-11-23T14:39:00Z,42.805,6.029,13.3066,4.60064,2470.32,2021-11-23T16:40:27Z
2021-11-23T14:42:03Z,42.805,6.029,13.3031,4.60089,2470.334,2021-11-23T16:43:30Z
2021-11-23T14:45:07Z,42.805,6.029,13.3009,4.60091,2470.334,2021-11-23T16:46:33Z
2021-11-23T14:48:10Z,42.805,6.029,13.3021,4.60080,2470.334,2021-11-23T16:49:36Z
2021-11-23T14:51:13Z,42.805,6.029,13.3043,4.60084,2470.31,2021-11-23T16:52:39Z
2021-11-23T14:54:16Z,42.805,6.029,13.3055,4.60070,2470.297,2021-11-23T16:55:43Z
2021-11-23T14:57:19Z,42.805,6.029,13.3052,4.60039,2470.297,2021-11-23T16:58:46Z
2021-11-23T15:00:22Z,42.805,6.029,13.3073,4.60079,2470.334,2021-11-23T17:01:49Z